This is the latest recevied weather packets stored in our database for station/object YO6LRV-3. If no packets are shown the sender has not sent any weather packets the latest 10 day(s).
| Time | Temp. | Humidity | Pressure | Rain* | Wind** | Luminosity | Snow |
|---|---|---|---|---|---|---|---|
| 1777373450 | 20.56° C | 30% | 1017.9 hPa | - | - | - | - |
| 1777372550 | 19.44° C | 32% | 1017.9 hPa | - | - | - | - |
| 1777371650 | 17.78° C | 34% | 1018 hPa | - | - | - | - |
| 1777370750 | 16.67° C | 34% | 1018.1 hPa | - | - | - | - |
| 1777369850 | 15.56° C | 36% | 1018.3 hPa | - | - | - | - |
| 1777368950 | 14.44° C | 36% | 1018.2 hPa | - | - | - | - |
| 1777368050 | 13.89° C | 37% | 1018.3 hPa | - | - | - | - |
| 1777367149 | 13.33° C | 37% | 1018.3 hPa | - | - | - | - |
| 1777366249 | 12.78° C | 38% | 1018.4 hPa | - | - | - | - |
| 1777365349 | 12.22° C | 39% | 1017.8 hPa | - | - | - | - |
| 1777364449 | 11.67° C | 40% | 1018.5 hPa | - | - | - | - |
| 1777363549 | 11.11° C | 39% | 1018.5 hPa | - | - | - | - |
| 1777362649 | 11.11° C | 40% | 1018.6 hPa | - | - | - | - |
| 1777361749 | 10.56° C | 40% | 1018.6 hPa | - | - | - | - |
| 1777360849 | 10° C | 43% | 1018.6 hPa | - | - | - | - |
| 1777359951 | 9.44° C | 44% | 1018.6 hPa | - | - | - | - |
| 1777359051 | 8.89° C | 46% | 1018.6 hPa | - | - | - | - |
| 1777358151 | 8.89° C | 46% | 1018.6 hPa | - | - | - | - |
| 1777357250 | 8.33° C | 48% | 1018.6 hPa | - | - | - | - |
| 1777356350 | 8.33° C | 46% | 1018.5 hPa | - | - | - | - |
| 1777355450 | 7.78° C | 43% | 1018.4 hPa | - | - | - | - |
| 1777354544 | 7.78° C | 45% | 1018.4 hPa | - | - | - | - |
| 1777353644 | 7.22° C | 43% | 1018.3 hPa | - | - | - | - |
| 1777352750 | 7.22° C | 39% | 1018.1 hPa | - | - | - | - |
| 1777351850 | 7.22° C | 38% | 1018.1 hPa | - | - | - | - |
* Rain since midnight (hover to see other rain measurements)
** Current wind speed in m/s (hover to see current wind gust speed)